Location: Hurstbourne Priors
(51.2000°N, 1.3667°W)
Time: 19:35:28
(UTC+00:00)

Transit 4A - Pass Details

Date: 26 April 2021
Orbit: 870 x 974 km, 66.8° (Epoch: 09 May)

Event Time Altitude Azimuth Distance (km) Brightness Sun altitude
Rises 01:51:56 0° 286° (WNW) 3,584 10.8 -21.1°
Reaches altitude 10° 01:55:17 10° 303° (WNW) 2,621 10.3 -20.8°
Maximum altitude 01:59:33 19° 348° (NNW) 2,012 10.2 -20.5°
Drops below altitude 10° 02:03:45 10° 33° (NNE) 2,575 11.4 -20.1°
Sets 02:07:01 0° 51° (NE) 3,499 12.2 -19.9°
